STARLINK-32920, 62925

Orbit data source: Space-Track

STARLINK-32920, 62925 is a payload satellite owned by SpaceX/Seattle (US) in LEO that was launched on Sat, 08 Feb 2025 UTC via an FALCON 9 launch vehicle from the Air Force Eastern Test Range (AFETR). Payload-class satellites include a variety of spacecraft equipped with specific instruments for various scientific and technological missions. These include communications satellites like Starlink; space stations such as the ISS; scientific satellites like the Hubble; Earth observation satellites from companies like Planet Labs, Umbra, and HawkEye 360; GPS; miniature CubeSats for education and research; and military/defense satellites.

Loading next visibility...
Identifier
62925, 2025-027U
Orbit
LEO
Last TLE update
10 hours ago
Origin
Manufacturer
SpaceX/Seattle
Mission
Operational Commercial Communications
Bus & Motor
STARLINK V2M, Unknown motor
Mass
730 kg wet, ~700 kg dry
Launch date (UTC)
2025-02-08 (5 months ago)
Launch vehicle
FALCON 9
Launch site
Air Force Eastern Test Range (AFETR)
Object type
Payload
Rocket body
Debris
Shape & HBR
Box + 2 Pan, 29 m
Radar Cross Section
33.884 m², Large (>1 m²)

Expand to show TLE details & history

TLE from 10 hours ago
0 STARLINK-32920
1 62925U 25027U   25182.80701929  .00016775  00000-0  61746-3 0  9997
2 62925  42.9976 105.6640 0000287 236.9070 123.1754 15.27594170 23176
Epoch: 2025-07-01T19:22Z
TLE epoch observation values (Epoch: 2025-07-01T19:22:06.466Z)
Latitude
-0.00003°
Longitude
-104.96015°
Altitude
482.89 km
Speed
7.626 km/s
True Right ascension
07h 02m 39s
True Declination
0° 00' 00"
Sunlit
Object was in daylight at epoch
Visualization orbit readout
Latitude
19.52398°
Longitude
-84.98571°
Altitude
482.443 km
Speed
7.628 km/s
Apparent Right ascension
06h 46m 21s
Apparent Declination
-10° 07' 16"
Sunlit
Object is in daylight
Visualization observer readout
Local Sidereal Time
16:36:08
Azimuth
306.896° NW
Elevation
-48.52°
Doppler factor
1
Orbital elements
Apogee altitude
485.149 km
Perigee altitude
484.755 km
Semi-major axis
6,863.089 km
Eccentricity
0.00003
Inclination
42.9976°
RAAN
105.664°
Arg. of periapsis
236.907°
True anomaly
Unknown
Mean anomaly
123.1754°
Eccentric anomaly
Unknown
Mean motion
3.81737 °/min
Orbital period
94.31 mins
BSTAR
0.00061746
Loading maneuver chart data...
Loading SW <> Apogee altitude chart data...
Loading historical data...
Loading historical data...
Loading historical data...
Loading historical data...
Loading historical data...
Loading historical data...
Loading historical data...

STARLINK-32920 Visibility forecast

Observer location: undefined°, undefined°

Span
Click to sort rows by Start time (UTC) header in descending order
Start Az.
Max El. time (UTC)
Max El. Az.
Max El.
End time (UTC)
End Az.
5 mins2025-07-02 22:16:39.884Z219.68° SW2025-07-02 22:18:39.884Z160.773° S37.017°2025-07-02 22:21:39.884Z81.619° E
5 mins2025-07-02 23:55:39.884Z277.364° WNW2025-07-02 23:57:39.884Z345.352° N40.731°2025-07-03 00:00:39.884Z68.778° E
5 mins2025-07-03 01:34:39.884Z294.862° NW2025-07-03 01:36:39.884Z346.737° N39.584°2025-07-03 01:39:39.884Z84.962° E
5 mins2025-07-03 03:13:39.884Z275.663° WNW2025-07-03 03:15:39.884Z222.265° SW38.309°2025-07-03 03:18:39.884Z132.052° SE
|